www.pogodaiklimat.ru

Погода и климат >> Архив погоды >> Норвегия >> Vaeroy Heliport


ПОГОДА в Vaeroy Heliport

  • Прогноз погоды в Vaeroy Heliport
  • Монитор погоды в Vaeroy Heliport
  • Климат города

АРХИВ ПОГОДЫ в Vaeroy Heliport

Время (UTC), дата Ветер
(напр.,м/с)
 
Видим.   Явления Облачность Т
(С)
Тd
(С)
f
(%)
Тe
(С)
Тes
(С)
Комфортность P
(гПа)
Po
(гПа)
Тmin
(С)
Tmax
(С)
R
(мм)
R24
(мм)
S
(см)
09 22.05 ЮЗ 2 н/о н/о +6.2 +4.4 88 +4 +4 1016.2 1015.7
10 22.05 З 3
{7}
н/о н/о +6.9 +4.5 85 +4 +4 1016.1 1015.6
11 22.05 З 3
{6}
н/о н/о +7.2 +4.7 84 +4 +4 1016.2 1015.7
12 22.05 З 3
{7}
н/о н/о +7.4 +4.7 83 +5 +5 1016.4 1015.9
14 22.05 З 3
{5}
н/о н/о +7.0 +4.5 84 +4 +4 1016.2 1015.7
13 22.05 З 3
{6}
н/о н/о +7.4 +4.3 81 +5 +5 1016.3 1015.8
15 22.05 З 3
{6}
н/о н/о +7.1 +4.5 84 +4 +4 1016.0 1015.5
16 22.05 З 3
{6}
н/о н/о +6.8 +4.4 85 +4 +4 1016.0 1015.5
17 22.05 З 2
{6}
н/о н/о +6.4 +4.6 88 +4 +4 1016.0 1015.5
18 22.05 СЗ 3
{6}
н/о н/о +6.4 +4.2 86 +3 +3 1016.2 1015.7 +6.1 +7.6
20 22.05 СЗ 2
{4}
н/о н/о +6.0 +3.5 84 +4 +4 1016.0 1015.5
19 22.05 З 2
{5}
н/о н/о +6.2 +3.9 85 +4 +4 1016.1 1015.6
21 22.05 СЗ 2
{5}
н/о н/о +5.9 +3.6 85 +3 +3 1016.3 1015.8
22 22.05 СЗ 3
{6}
н/о н/о +5.7 +3.3 85 +2 +2 1016.4 1015.9
23 22.05 СЗ 1
{3}
н/о н/о +5.5 +3.5 87 +4 +4 1016.4 1015.9
00 23.05 З 1
{6}
н/о н/о +4.9 +3.4 90 +4 +4 1016.4 1015.9
02 23.05 СЗ 2
{5}
н/о н/о +5.0 +3.7 91 +2 +2 1016.6 1016.1
01 23.05 СЗ 1
{2}
н/о н/о +4.9 +3.5 91 +4 +4 1016.5 1016.0
03 23.05 С 3
{5}
н/о н/о +5.4 +3.8 89 +2 +2 1016.6 1016.1
04 23.05 С 4
{7}
н/о н/о +5.1 +3.9 92 +1 +1 1016.5 1016.0
05 23.05 СВ 4
{6}
н/о н/о +5.1 +4.2 94 +1 +1 1016.7 1016.2
06 23.05 СВ 5
{7}
н/о н/о +5.9 +3.2 83 +2 +2 1016.9 1016.4 +4.6 +6.6
08 23.05 СВ 4
{5}
н/о н/о +6.3 +2.7 78 +3 +3 1017.1 1016.6
07 23.05 СВ 4
{6}
н/о н/о +6.0 +2.3 77 +2 +2 1017.0 1016.5
09 23.05 В 4
{5}
н/о н/о +6.8 +2.8 76 +3 +3 1017.2 1016.7
10 23.05 СВ 4
{4}
н/о н/о +6.3 +2.0 74 +3 +3 1017.3 1016.8
11 23.05 СВ 4
{5}
н/о н/о +6.7 +1.9 71 +3 +3 1017.3 1016.8
12 23.05 СВ 3
{6}
н/о н/о +7.2 +1.9 69 +5 +5 1017.4 1016.9
14 23.05 В 4
{5}
н/о н/о +6.5 +2.4 75 +3 +3 1016.9 1016.4
13 23.05 СВ 3
{4}
н/о н/о +7.5 +2.5 71 +5 +5 1017.2 1016.7
15 23.05 В 3
{6}
н/о н/о +6.9 +2.3 72 +4 +4 1016.6 1016.1
16 23.05 В 2
{4}
н/о н/о +8.0 +2.5 68 +6 +6 1016.3 1015.8
17 23.05 В 2
{3}
н/о н/о +7.5 +2.1 69 +6 +6 1016.0 1015.5
18 23.05 В 2
{6}
н/о н/о +7.4 +1.7 67 +6 +6 1015.7 1015.2 +5.7 +8.0
20 23.05 штиль 0
{3}
н/о н/о +6.5 +1.1 68 +6 +6 1015.1 1014.6
19 23.05 Ю 1
{3}
н/о н/о +6.6 +1.3 69 +6 +6 1015.5 1015.0
21 23.05 С 1
{2}
н/о н/о +6.2 +1.0 69 +5 +5 1014.9 1014.4
22 23.05 С 2
{3}
н/о н/о +6.2 +0.9 69 +4 +4 1014.5 1014.0
23 23.05 С 3
{3}
н/о н/о +6.2 +1.8 73 +3 +3 1014.3 1013.8
00 24.05 С 2
{4}
н/о н/о +6.0 +1.5 73 +4 +4 1013.9 1013.4
02 24.05 СЗ 2
{4}
н/о н/о +5.3 +1.7 78 +3 +3 1013.4 1012.9
01 24.05 СЗ 2
{3}
н/о н/о +5.8 +1.1 72 +4 +4 1013.6 1013.1
03 24.05 СЗ 2
{3}
н/о н/о +5.2 +1.9 79 +3 +3 1013.0 1012.5
04 24.05 З 1
{3}
н/о н/о +5.7 +1.6 75 +5 +5 1012.7 1012.2
05 24.05 ЮЗ 2
{4}
н/о н/о +5.8 +2.0 77 +3 +3 1012.8 1012.3
06 24.05 ЮЗ 3
{5}
н/о н/о +6.6 +2.1 73 +4 +4 1012.7 1012.2 +5.0 +7.4
08 24.05 З 3
{6}
н/о н/о +7.5 +1.6 66 +5 +5 1012.9 1012.4
07 24.05 ЮЗ 4
{5}
н/о н/о +6.8 +2.4 74 +3 +3 1012.8 1012.3
09 24.05 ЮЗ 4
{6}
н/о н/о +7.2 +2.4 72 +4 +4 1012.9 1012.4
10 24.05 ЮЗ 5
{7}
н/о н/о +7.7 +2.5 70 +4 +4 1013.1 1012.6
11 24.05 ЮЗ 5
{7}
н/о н/о +7.7 +2.7 71 +4 +4 1013.2 1012.7
12 24.05 ЮЗ 6
{7}
н/о н/о +7.5 +3.5 76 +3 +3 1013.3 1012.8
14 24.05 ЮЗ 6
{9}
н/о н/о +7.6 +4.4 80 +3 +3 1013.1 1012.6
13 24.05 ЮЗ 7
{9}
н/о н/о +7.4 +4.1 80 +3 +3 1013.3 1012.8
15 24.05 ЮЗ 6
{8}
н/о н/о +7.8 +4.4 79 +4 +4 1012.9 1012.4
16 24.05 ЮЗ 6
{9}
н/о н/о +7.5 +4.2 80 +3 +3 1012.9 1012.4
17 24.05 ЮЗ 6
{9}
н/о н/о +7.1 +5.3 88 +3 +3 1012.5 1012.0
18 24.05 ЮЗ 6
{9}
н/о н/о +7.2 +6.0 92 +3 +3 1012.2 1011.8 +6.5 +8.2
20 24.05 З 5
{11}
н/о н/о +7.4 +6.8 96 +3 +3 1011.6 1011.1
19 24.05 ЮЗ 5
{9}
н/о н/о +7.0 +6.3 95 +3 +3 1011.9 1011.4
21 24.05 ЮЗ 7
{12}
н/о н/о +7.7 +6.4 91 +3 +3 1011.3 1010.8
22 24.05 ЮЗ 9
{14}
н/о н/о +7.5 +6.4 93 +2 +2 1010.9 1010.4
23 24.05 ЮЗ 9
{14}
н/о н/о +7.3 +6.3 93 +2 +2 1010.6 1010.1
00 25.05 ЮЗ 10
{15}
н/о н/о +7.3 +6.2 93 +2 +2 1010.2 1009.7
02 25.05 ЮЗ 10
{15}
н/о н/о +7.1 +6.2 94 +1 +1 1009.7 1009.2
01 25.05 ЮЗ 10
{16}
н/о н/о +7.2 +6.1 93 +1 +1 1010.1 1009.6
03 25.05 ЮЗ 10
{14}
н/о н/о +7.0 +6.2 95 +1 +1 1009.3 1008.8
04 25.05 ЮЗ 8
{15}
н/о н/о +7.2 +6.2 93 +2 +2 1009.1 1008.6
05 25.05 ЮЗ 8
{14}
н/о н/о +7.2 +6.2 93 +2 +2 1009.1 1008.7
06 25.05 З 5
{16}
н/о н/о +6.7 +5.5 92 +2 +2 1009.5 1009.0 +6.7
08 25.05 СЗ 4
{8}
н/о н/о +6.2 +4.6 89 +2 +2 1010.4 1009.9
07 25.05 СЗ 3
{7}
н/о н/о +6.6 +5.4 92 +3 +3 1009.8 1009.3
09 25.05 С 4
{9}
н/о н/о +5.8 +3.5 85 +2 +2 1010.8 1010.3
10 25.05 С 4
{8}
н/о н/о +6.0 +2.3 77 +2 +2 1011.3 1010.8
11 25.05 С 4
{9}
н/о н/о +6.4 +1.9 73 +3 +3 1011.7 1011.2
12 25.05 С 6
{10}
н/о н/о +6.9 +1.1 67 +3 +3 1012.1 1011.6
14 25.05 С 6
{11}
н/о н/о +6.8 +2.1 72 +2 +2 1013.2 1012.7
13 25.05 С 6
{10}
н/о н/о +7.0 +2.2 71 +3 +3 1012.6 1012.1
15 25.05 С 6 н/о н/о +7.1 +1.6 68 +3 +3 1013.7 1013.2
16 25.05 С 8
{11}
н/о н/о +6.9 +2.1 71 +2 +2 1014.0 1013.5
17 25.05 С 7
{12}
н/о н/о +7.1 +0.5 63 +3 +3 1014.4 1013.9
18 25.05 С 7
{12}
н/о н/о +6.5 +2.4 75 +2 +2 1015.1 1014.6 +5.7 +7.4
20 25.05 С 7
{11}
н/о н/о +6.1 +2.2 76 +1 +1 1015.9 1015.4
19 25.05 С 7
{11}
н/о н/о +6.3 +2.6 77 +1 +1 1015.5 1015.0
21 25.05 С 4
{9}
н/о н/о +5.7 +1.9 77 +2 +2 1016.4 1015.9
22 25.05 С 4
{8}
н/о н/о +5.5 +0.8 72 +2 +2 1016.9 1016.4
23 25.05 С 4
{9}
н/о н/о +5.5 +0.5 70 +2 +2 1017.5 1017.0
00 26.05 СЗ 2
{11}
н/о н/о +4.8 +0.1 72 +2 +2 1017.9 1017.4
02 26.05 СЗ 2
{7}
н/о н/о +4.8 +0.7 75 +2 +2 1018.4 1017.9
01 26.05 С 4
{7}
н/о н/о +4.9 +0.5 73 +1 +1 1018.1 1017.6
03 26.05 СЗ 2
{3}
н/о н/о +5.1 +0.6 73 +3 +3 1018.9 1018.4
04 26.05 СЗ 1
{3}
н/о н/о +6.3 +0.7 67 +6 +6 1019.2 1018.7

 

Местоположение метеостанции Vaeroy Heliport (Норвегия): широта 67.65 долгота 12.72 высота над уровнем моря 4 м.

В архиве по умолчанию представлена погода в Vaeroy Heliport за последнюю неделю. Архивные данные за месяц целиком и за предыдущие месяцы, начиная с января 2011 года, Вы можете получить, выбрав интересующий диапазон дат из раскрывающегося списка и нажав кнопку "Ввод!".

Внимание! Время в таблицах - всемирное. Для получения местного времени необходимо прибавить поправку, которая в Vaeroy Heliport равна 1 ч.

Смотрите также архив погоды в соседних городах и на ближайших метеорологических станциях:

Погода в Rost Flyplass (Норвегия) (30 км)
Погода в Helligvaer II (Норвегия) (57 км)
Погода в Leknes (Норвегия) (68 км)
Погода в Bodo VI (Норвегия) (82 км)
Погода в Reipa (Норвегия) (92 км)
Погода в Skrova Fyr (Норвегия) (98 км)
Погода в Myken (Норвегия) (98 км)
Погода в Svolvaer Lufthavn (Норвегия) (105 км)
Погода в Bo i Vesteralen (Норвегия) (128 км)
Погода в Setsa (Норвегия) (130 км)

Пояснения к столбцам:

Ветер - указаны скорость ветра в м/с - средняя за 10 мин, порывы в срок и между сроками (в фигурных скобках) и направление, откуда дует ветер: С - северный, СВ - северо-восточный, В - восточный, ЮВ - юго-восточный, Ю - южный, ЮЗ - юго-западный, З - западный, СЗ - северо-западный.
Видимость - горизонтальная дальность видимости в метрах или километрах. При видимости от 1 до 10 км при отсутствии осадков обычно наблюдается дымка, при ухудшении видимости до 1 км и менее - туман. В сухую погоду видимость может ухудшаться дымом, пылью или мглою.
Явления - указаны атмосферные явления, наблюдавшиеся в срок или в последний час перед сроком; фигурными скобками обозначены явления, наблюдавшиеся между сроками (за 1-3 часа до срока); квадратными скобками обозначены град или гололедные отложения с указанием их диаметра в мм.
Облачность - указаны через наклонную черту общая и нижняя облачность в баллах и высота нижней границы облаков в метрах; квадратными скобками обозначены формы облаков: Ci - перистые, Cs - перисто-слоистые, Cc - перисто-кучевые, Ac - высококучевые, As - высокослоистые, Sc - слоисто-кучевые, Ns - слоисто-дождевые, Cu - кучевые, Cb - кучево-дождевые. Подробнее классификацию облаков см. в Атласе облаков (PDF).
T - Температура воздуха - температура, измеренная на высоте 2 м над землей.
Td - Температура точки росы - температура, при понижении до которой содержащийся в воздухе водяной пар достигнет насыщения.
f - Относительная влажность воздуха - влажноcть воздуха, измеренная на высоте 2 м над землей.
Te - Эффективная температура - температура, которую ощущает одетый по сезону человек в тени. Характеристика душности погоды. При расчете учитывается влияние влажности воздуха и скорости ветра на теплоощущения человека.
Tes - Эффективная температура на солнце - температура, которую ощущает человек, с поправкой на солнечный нагрев. Характеристика знойности погоды. Зависит от высоты солнца над горизонтом, облачности и скорости ветра. Ночью, в пасмурную погоду, а также при ветре 12 м/с и более поправка равна нулю.
P - Атмосферное давление - приведенное к уровню моря атмосферное давление.
Po - Атмосферное давление - измеренное на уровне метеостанции атмосферное давление.
Tmin - Минимальная температура - минимум температуры воздуха на высоте 2 м над землей.
Tmax - Максимальная температура - максимум температуры воздуха на высоте 2 м над землей.
R - Количество осадков - Количество выпавших осадков за период времени, мм. При наведении курсора мыши на число - период времени, за который выпало указанное количество осадков.
R24 - Количество осадков - Количество выпавших осадков за 24 часа, мм.
S - Снежный покров - Высота снежного покрова, см. При наведении курсора мыши на число - состояние снежного покрова и степень покрытия местности в баллах.